Location: Julian California
(33.0790°N, 116.6010°W)
Time: 04:40:22
(UTC-08:00)

Daily predictions for brighter satellites

Satellite Brightness Start Highest point End
(mag) Time Altitude Azimuth Time Altitude Azimuth Time Altitude Azimuth
Haruka 4.4 04:01:56 40° S 04:02:53 44° SSE 04:15:48 10° E
Milstar 3 Cent rocket 4.3 04:11:28 27° SSW 04:12:28 27° SSW 04:21:51 10° SE
CZ-4C R/B 3.8 04:20:27 22° NNE 04:20:27 22° NNE 04:22:36 10° NNE
RESURS DK-1 4.5 04:25:05 20° SSE 04:25:05 20° SSE 04:26:25 10° SSE
IDEFIX/ARIANE 42P 4.4 04:18:38 10° NE 04:23:11 30° E 04:27:44 10° SSE
Cosmos 1980 Rocket 2.4 04:24:17 60° S 04:24:17 60° S 04:28:55 10° SSE
Cosmos 2180 Rocket 4.3 04:27:14 72° NW 04:27:45 77° W 04:33:56 10° S
Aurora 2 Rocket 4.3 04:33:31 19° SSE 04:33:31 19° SSE 04:35:26 10° SE
USA 267 3.9 04:28:18 10° NNE 04:33:11 35° NNW 04:33:11 35° NNW
APEX 4.4 04:37:31 35° ENE 04:37:31 35° ENE 04:40:21 10° NE
Nadezhda 4 Rocket 3.8 04:41:07 10° SSW 04:47:12 65° W 04:53:17 10° N
Meteor 1-4 Rocket 3.5 04:43:36 10° S 04:46:15 43° S 04:46:15 43° S
USA 116 3.9 04:46:48 10° S 04:51:40 83° WSW 04:52:42 53° NNW
SeaSat 1 3.3 04:48:08 10° N 04:51:13 34° NNW 04:51:13 34° NNW
Cosmos 1025 Rocket 3.9 04:50:19 12° N 04:54:10 47° E 04:58:17 10° SSE
CZ-2C R/B 3.5 04:49:57 10° NNE 04:54:27 42° E 04:58:48 10° S
Meteor 2-20 Rocket 4.4 04:48:37 10° SSW 04:54:34 55° W 05:00:32 10° N
PAYLOAD A 4.3 04:53:23 10° NNE 04:58:48 75° ESE 05:04:01 10° S
Meteor 2-4 Rocket 3.9 05:01:45 41° WNW 05:02:37 44° W 05:07:55 10° SSW
Cosmos 2285 Rocket 4.0 04:57:05 10° SSW 05:03:24 83° ESE 05:09:42 10° NNE
OAO 3 Copernicus 4.2 05:02:54 47° WNW 05:04:16 72° N 05:09:17 10° E
Okean 2 3.7 05:01:39 15° N 05:05:03 66° E 05:09:07 10° SSE
USA 234 4.2 04:59:50 10° ESE 05:05:52 41° NE 05:11:04 14° NNW
Cosmos 1536 Rocket 4.5 05:07:44 31° SW 05:07:44 31° SW 05:10:34 10° SSW
SL-16 R/B 2.2 05:02:18 18° NNW 05:06:39 80° ENE 05:12:18 10° SSE
Cosmos 2322 Rocket 2.2 05:06:04 17° NNW 05:10:36 84° ENE 05:16:17 10° SSE
EO 1 Del DPAF 3.2 05:09:43 10° SSE 05:13:30 79° ENE 05:16:31 16° N
COSMO-SKYMED 1 2.4 05:09:12 10° S 05:13:31 84° W 05:17:13 14° NNW
Cosmos 1500 3.4 05:19:27 10° SSW 05:23:07 44° W 05:26:48 10° N
Landsat 4 4.2 05:22:42 10° S 05:26:13 38° W 05:27:25 30° WNW
ATLAS CENTAUR R/B 1.3 05:23:46 10° SSW 05:27:29 72° ESE 05:31:09 10° NNE
NOAA 6 4.3 05:22:45 10° N 05:27:33 42° WNW 05:32:22 10° SW
MTI 4.2 05:25:10 10° S 05:28:08 38° W 05:28:40 35° WNW
Okean 1 Rocket 3.7 05:24:35 10° SW 05:28:28 31° W 05:32:24 10° NNW
Cosmos 389 Rocket 3.1 05:25:01 10° S 05:28:34 60° E 05:32:07 10° NNE
Meteor 1-12 Rocket 4.4 05:24:34 10° S 05:30:15 76° E 05:35:54 10° NNE
Cosmos 1092 Rocket 4.3 05:24:54 10° SSW 05:30:36 40° W 05:36:21 10° N
Tiangong 1 2.3 05:35:06 10° SSW 05:37:21 31° SE 05:39:39 10° ENE
Okean-O 3.3 05:33:29 10° N 05:37:23 31° WNW 05:41:15 10° SW
MSX 3.7 05:33:20 10° N 05:39:05 79° WNW 05:44:47 10° SSW
Cosmos 1833 4.2 05:34:06 10° SW 05:39:33 57° WNW 05:45:03 10° NNE
Cosmos 2026 Rocket 4.1 05:35:50 10° SSW 05:41:57 57° W 05:48:11 10° N
Cosmos 1271 Rocket 3.0 05:38:20 10° S 05:42:04 68° E 05:45:47 10° NNE
DMSP B5D1-3 4.5 05:38:29 10° S 05:43:35 68° WSW 05:48:44 10° NNW
Meteor 2-11 Rocket 4.5 05:38:15 10° NNW 05:44:13 58° W 05:50:06 10° S
Cosmos 1680 Rocket 3.9 05:39:43 10° SW 05:44:31 38° WNW 05:49:21 10° N
GEOS 3 Rocket 3.9 05:41:35 10° NE 05:46:58 75° ESE 05:52:16 10° SSW
OAO 3 Rocket 4.5 05:43:21 10° SW 05:47:48 39° SSE 05:52:10 10° E
GPS 2-05 Rocket1 2.7 05:48:09 16° W 05:50:43 68° N 05:54:05 10° ENE
Cosmos 1892 Rocket 3.5 05:48:16 10° N 05:52:38 87° E 05:56:57 10° S
Cosmos 1655 Rocket 4.0 05:47:06 10° SSW 05:53:17 67° W 05:59:32 10° N
Cosmos 1666 2.6 05:51:19 10° SSW 05:55:07 68° W 05:58:55 10° N
Cosmos 1553 Rocket 4.0 05:52:01 10° N 05:58:15 89° E 06:04:20 10° S
OE (NEXTSAT) 4.5 05:55:24 14° WNW 05:58:17 64° SW 06:01:47 10° SE
IDEFIX/ARIANE 42P 3.5 05:58:21 10° NNW 06:02:37 26° WNW 06:06:54 10° SW
Cosmos 2360 Rocket 2.2 05:59:49 10° NNW 06:05:30 83° WSW 06:11:09 10° SSE
Cosmos 2333 Rocket 4.4 06:02:42 10° N 06:07:06 22° ENE 06:11:26 10° ESE
Cosmos 1371 Rocket 4.1 06:02:21 10° NNW 06:07:33 81° ENE 06:12:42 10° SSE
COSMOS 2428 3.9 06:05:01 10° N 06:10:29 44° ENE 06:15:55 10° SE
Cosmos 1066 Rocket 4.5 06:05:40 10° NNW 06:10:45 45° W 06:15:56 10° SSW
Cosmos 2219 Rocket 4.0 06:08:36 10° N 06:13:28 29° ENE 06:18:19 10° ESE
AQUARIUS 4.1 06:09:50 10° N 06:14:20 77° WNW 06:18:48 10° SSW
Thor Agena Rocket 3.5 06:10:09 10° S 06:15:08 68° WSW 06:20:12 10° NNW
CZ-4 R/B 1.5 06:14:46 10° NNE 06:19:00 88° W 06:23:14 10° SSW
